www.pogodaiklimat.ru

Погода и климат >> Архив погоды >> Фиджи >> Sigatoka


ПОГОДА в Sigatoka

  • Прогноз погоды в Sigatoka
  • Монитор погоды в Sigatoka
  • Климат города

АРХИВ ПОГОДЫ в Sigatoka

Время (UTC), дата Ветер
(напр.,м/с)
 
Видим.   Явления Облачность Т
(С)
Тd
(С)
f
(%)
Тe
(С)
Тes
(С)
Комфортность P
(гПа)
Po
(гПа)
Тmin
(С)
Tmax
(С)
R
(мм)
R24
(мм)
S
(см)
12 11.12 СВ 1 н/о н/о +22.2 +21.3 95 +29 +29 очень
душно
1008.4 1007.3 +30.0
15 11.12 штиль 0 н/о н/о +20.5 +20.0 97 +25 +25 комфорт 1006.7 1005.6
18 11.12 СВ 2 н/о н/о +21.2 +21.0 99 +27 +27 душно 1007.7 1006.6
21 11.12 В 1 н/о н/о +27.4 +22.9 76 +36 +36 очень
душно
1008.5 1007.4
00 12.12 ЮВ 4 н/о н/о +28.8 +23.8 74 +39 +39 очень
душно
1007.6 1006.5 +20.1
03 12.12 Ю 3 н/о н/о +27.8 +23.5 77 +38 +38 очень
душно
1007.5 1006.4
06 12.12 ЮВ 2 н/о н/о +27.4 +22.6 75 +36 +36 очень
душно
1007.8 1006.7
09 12.12 СВ 1 н/о н/о +25.6 +22.9 85 +34 +34 очень
душно
1009.7 1008.6
12 12.12 В 1 н/о н/о +24.7 +22.9 90 +33 +33 очень
душно
1009.1 1008.0 +30.2
15 12.12 С 1 н/о н/о +23.1 +22.1 94 +31 +31 очень
душно
1007.2 1006.1
18 12.12 СВ 1 н/о н/о +22.0 +21.6 98 +29 +29 очень
душно
1007.7 1006.6
21 12.12 Ю 3 н/о н/о +28.6 +23.4 73 +39 +39 очень
душно
1008.6 1007.5
00 13.12 ЮВ 5 н/о н/о +30.1 +23.8 69 +41 +41 опасность
перегрева
1007.4 1006.3 +21.7
03 13.12 ЮВ 5 н/о н/о +29.3 +23.1 69 +39 +39 очень
душно
1006.0 1004.9
06 13.12 ЮВ 3 н/о н/о +28.0 +22.5 72 +37 +37 очень
душно
1007.1 1006.0
09 13.12 В 2 н/о н/о +25.4 +21.7 80 +33 +33 очень
душно
1009.3 1008.2
12 13.12 В 1 н/о н/о +23.8 +22.2 91 +31 +31 очень
душно
1008.9 1007.8 +30.8
15 13.12 В 1 н/о н/о +22.3 +21.7 96 +29 +29 очень
душно
1007.1 1006.0
18 13.12 СВ 1 н/о н/о +22.1 +21.3 95 +29 +29 очень
душно
1007.4 1006.3
21 13.12 Ю 2 н/о н/о +28.6 +22.9 71 +38 +38 очень
душно
1008.2 1007.1
00 14.12 ЮВ 5 н/о н/о +28.8 +24.7 79 +41 +41 опасность
перегрева
1007.5 1006.4 +21.7
03 14.12 ЮВ 4 н/о н/о +27.6 +23.0 76 +37 +37 очень
душно
1006.1 1005.0
06 14.12 В 2 н/о н/о +26.4 +22.6 80 +35 +35 очень
душно
1006.6 1005.5
09 14.12 В 2 н/о н/о +25.2 +22.1 83 +33 +33 очень
душно
1008.7 1007.6
12 14.12 ЮВ 2 н/о н/о +24.8 +22.0 84 +32 +32 очень
душно
1008.5 1007.4 +30.7
15 14.12 штиль 0 н/о н/о +24.2 +22.2 89 +31 +31 очень
душно
1006.8 1005.7
18 14.12 В 1 н/о н/о +24.7 +21.8 84 +32 +32 очень
душно
1008.3 1007.2
21 14.12 В 2 н/о н/о +27.0 +22.1 75 +35 +35 очень
душно
1009.3 1008.2
00 15.12 ЮВ 4 н/о н/о +28.6 +23.7 75 +39 +39 очень
душно
1007.8 1006.7 +24.0
03 15.12 ЮВ 3 н/о н/о +27.3 +23.4 79 +37 +37 очень
душно
1006.8 1005.7
06 15.12 В 2 н/о н/о +25.4 +23.2 88 +34 +34 очень
душно
1007.0 1005.9
09 15.12 ЮВ 2 н/о н/о +24.4 +22.5 89 +32 +32 очень
душно
1008.8 1007.7
12 15.12 ЮВ 1 н/о н/о +24.3 +22.5 90 +32 +32 очень
душно
1008.3 1007.2 +29.7
15 15.12 В 2 н/о н/о +24.4 +22.7 90 +32 +32 очень
душно
1006.9 1005.8
18 15.12 В 3 н/о н/о +24.4 +22.5 89 +32 +32 очень
душно
1008.0 1006.9 0.5
21 15.12 В 3 н/о н/о +24.9 +22.0 84 +32 +32 очень
душно
1009.5 1008.4
00 16.12 ЮВ 4 н/о н/о +25.3 +21.5 79 +32 +32 очень
душно
1009.0 1007.9 +23.1 13
03 16.12 В 4 н/о н/о +25.7 +19.9 70 +31 +31 очень
душно
1007.2 1006.1
06 16.12 В 3 н/о н/о +25.2 +19.6 71 +31 +31 очень
душно
1007.4 1006.3
09 16.12 В 2 н/о н/о +23.8 +19.9 79 +29 +29 душно 1008.4 1007.3
12 16.12 В 2 н/о н/о +23.3 +19.9 81 +30 +30 очень
душно
1007.9 1006.8 +29.1
15 16.12 В 3 н/о н/о +23.7 +19.3 76 +29 +29 душно 1006.2 1005.1
18 16.12 В 2 н/о н/о +23.2 +18.6 75 +29 +29 душно 1006.2 1005.1
21 16.12 В 4 н/о н/о +25.8 +20.1 71 +32 +32 очень
душно
1006.6 1005.5
00 17.12 ЮВ 4 н/о н/о +26.3 +19.9 68 +32 +32 очень
душно
1006.8 1005.7 +23.0
03 17.12 ЮВ 5 н/о н/о +27.1 +20.1 66 +33 +33 очень
душно
1005.2 1004.1
06 17.12 В 3 н/о н/о +24.6 +20.4 77 +30 +30 очень
душно
1005.4 1004.3
09 17.12 В 2 н/о н/о +23.1 +20.0 83 +30 +30 очень
душно
1006.8 1005.7
12 17.12 В 1 н/о н/о +22.8 +20.0 84 +29 +29 очень
душно
1005.8 1004.7 +28.0
15 17.12 ЮВ 2 н/о н/о +23.0 +21.2 90 +31 +31 очень
душно
1004.9 1003.8
18 17.12 В 2 н/о н/о +22.9 +20.3 85 +30 +30 очень
душно
1004.9 1003.8
21 17.12 ЮВ 3 н/о н/о +25.0 +20.8 78 +31 +31 очень
душно
1006.2 1005.1
00 18.12 В 3 н/о н/о +24.4 +20.7 80 +30 +30 очень
душно
1005.7 1004.6 +22.5
03 18.12 ЮВ 4 н/о н/о +24.9 +20.4 76 +31 +31 очень
душно
1004.5 1003.4
06 18.12 В 3 н/о н/о +23.8 +19.9 79 +29 +29 душно 1005.3 1004.2

 

Местоположение метеостанции Sigatoka (Фиджи): широта -18.15 долгота 178.41 высота над уровнем моря 9 м.

В архиве по умолчанию представлена погода в Sigatoka за последнюю неделю. Архивные данные за месяц целиком и за предыдущие месяцы, начиная с января 2011 года, Вы можете получить, выбрав интересующий диапазон дат из раскрывающегося списка и нажав кнопку "Ввод!".

Внимание! Время в таблицах - всемирное. Для получения местного времени необходимо прибавить поправку, которая в Sigatoka равна 12 ч.

Смотрите также архив погоды в соседних городах и на ближайших метеорологических станциях:

Погода в Nausori (Фиджи) (19 км)
Погода в Rakiraki Aws (Фиджи) (91 км)
Погода в Vunisea (Фиджи) (104 км)
Погода в Nandi (Фиджи) (111 км)
Погода в Vanua Mbalavu (Фиджи) (114 км)
Погода в Nabouwalu (Фиджи) (132 км)
Погода в Matuku (Фиджи) (158 км)
Погода в Yasawa-I-Rara (Фиджи) (184 км)
Погода в Viwa Island (Фиджи) (195 км)
Погода в Vanua Levu (Фиджи) (280 км)

Пояснения к столбцам:

Ветер - указаны скорость ветра в м/с - средняя за 10 мин, порывы в срок и между сроками (в фигурных скобках) и направление, откуда дует ветер: С - северный, СВ - северо-восточный, В - восточный, ЮВ - юго-восточный, Ю - южный, ЮЗ - юго-западный, З - западный, СЗ - северо-западный.
Видимость - горизонтальная дальность видимости в метрах или километрах. При видимости от 1 до 10 км при отсутствии осадков обычно наблюдается дымка, при ухудшении видимости до 1 км и менее - туман. В сухую погоду видимость может ухудшаться дымом, пылью или мглою.
Явления - указаны атмосферные явления, наблюдавшиеся в срок или в последний час перед сроком; фигурными скобками обозначены явления, наблюдавшиеся между сроками (за 1-3 часа до срока); квадратными скобками обозначены град или гололедные отложения с указанием их диаметра в мм.
Облачность - указаны через наклонную черту общая и нижняя облачность в баллах и высота нижней границы облаков в метрах; квадратными скобками обозначены формы облаков: Ci - перистые, Cs - перисто-слоистые, Cc - перисто-кучевые, Ac - высококучевые, As - высокослоистые, Sc - слоисто-кучевые, Ns - слоисто-дождевые, Cu - кучевые, Cb - кучево-дождевые. Подробнее классификацию облаков см. в Атласе облаков (PDF).
T - Температура воздуха - температура, измеренная на высоте 2 м над землей.
Td - Температура точки росы - температура, при понижении до которой содержащийся в воздухе водяной пар достигнет насыщения.
f - Относительная влажность воздуха - влажноcть воздуха, измеренная на высоте 2 м над землей.
Te - Эффективная температура - температура, которую ощущает одетый по сезону человек в тени. Характеристика душности погоды. При расчете учитывается влияние влажности воздуха и скорости ветра на теплоощущения человека.
Tes - Эффективная температура на солнце - температура, которую ощущает человек, с поправкой на солнечный нагрев. Характеристика знойности погоды. Зависит от высоты солнца над горизонтом, облачности и скорости ветра. Ночью, в пасмурную погоду, а также при ветре 12 м/с и более поправка равна нулю.
P - Атмосферное давление - приведенное к уровню моря атмосферное давление.
Po - Атмосферное давление - измеренное на уровне метеостанции атмосферное давление.
Tmin - Минимальная температура - минимум температуры воздуха на высоте 2 м над землей.
Tmax - Максимальная температура - максимум температуры воздуха на высоте 2 м над землей.
R - Количество осадков - Количество выпавших осадков за период времени, мм. При наведении курсора мыши на число - период времени, за который выпало указанное количество осадков.
R24 - Количество осадков - Количество выпавших осадков за 24 часа, мм.
S - Снежный покров - Высота снежного покрова, см. При наведении курсора мыши на число - состояние снежного покрова и степень покрытия местности в баллах.